CW6020 Teulada ES current weather conditions

sailwx.info

Wind from 090 at 0 knots gusting 1

Air temperature 5.0° C
Dewpoint 4.9° C

Last reported at 2014-Dec-23 01:40 UTC.
Time now 2014-Dec-23 02:59 UTC

Location: N 38°44' E 000°06'.
View on Google Maps.

See reports from other nearby stations

  
Tides and Currents Weather Stations Pressure Air Temp Water Temp Dewpoint Dewpoint Depression Visibility Wind Speed Wind Dir Waves Ship Positions
date/time (UTC)wind fromknots sea level pressurealtimeterstation pressurevisibilityair tempwater tempwave heightnotes
2014-Dec-23 01:40 090 0 gusting 1 5.0
2014-Dec-23 01:30 120 0 gusting 1 5.0
2014-Dec-23 00:50 105 1 gusting 1 5.6
2014-Dec-23 00:40 090 1 gusting 1 5.6
2014-Dec-23 00:30 090 5.6
2014-Dec-23 00:20 090 1 gusting 2 5.6
2014-Dec-23 00:10 090 1 gusting 1 5.6
2014-Dec-22 23:50 090 0 gusting 1 5.6
2014-Dec-22 23:40 090 0 gusting 1 5.6
2014-Dec-22 23:00 135 0 gusting 1 6.1
2014-Dec-22 22:40 097 6.7
2014-Dec-22 22:30 105 6.7
2014-Dec-22 22:20 105 6.7
2014-Dec-22 22:10 135 6.7
2014-Dec-22 21:30 120 7.8
2014-Dec-22 21:20 105 7.8
2014-Dec-22 21:10 135 7.8
2014-Dec-22 21:00 120 7.8
2014-Dec-22 20:50 150 7.8
2014-Dec-22 20:30 135 7.8
2014-Dec-22 20:20 165 7.8
2014-Dec-22 20:10 150 8.3
2014-Dec-22 20:00 090 8.3
2014-Dec-22 19:50 090 8.3
2014-Dec-22 19:40 120 8.3
2014-Dec-22 19:20 090 9.4
2014-Dec-22 18:40 120 10.0
2014-Dec-22 18:30 105 10.0
2014-Dec-22 18:20 135 10.6
2014-Dec-22 18:10 135 10.6
2014-Dec-22 17:50 180 0 gusting 1 11.1
2014-Dec-22 17:40 225 11.7
2014-Dec-22 17:20 255 11.7
2014-Dec-22 17:10 270 12.2
2014-Dec-22 17:00 255 12.8
2014-Dec-22 16:50 225 12.8
2014-Dec-22 16:20 180 1 gusting 2 14.4
2014-Dec-22 16:10 180 1 gusting 3 15.0
2014-Dec-22 16:00 195 1 gusting 3 15.0
2014-Dec-22 15:50 150 3 gusting 5 15.6
2014-Dec-22 15:40 150 2 gusting 5 16.1
2014-Dec-22 15:30 165 3 gusting 5 16.7
2014-Dec-22 15:20 165 3 gusting 3 16.7
2014-Dec-22 15:10 165 1 gusting 3 17.2
2014-Dec-22 14:40 195 2 gusting 3 17.8
2014-Dec-22 14:30 210 2 gusting 3 17.8
2014-Dec-22 14:10 165 1 gusting 3 18.3
2014-Dec-22 13:50 180 2 gusting 4 18.9
2014-Dec-22 13:40 165 1 gusting 3 18.9
2014-Dec-22 13:30 150 3 gusting 5 18.9
2014-Dec-22 13:20 165 2 gusting 3 18.9
2014-Dec-22 13:10 180 1 gusting 3 18.3
2014-Dec-22 12:50 165 1 gusting 1 18.3
2014-Dec-22 12:40 195 1 gusting 3 18.3
2014-Dec-22 12:30 210 1 gusting 3 18.3
2014-Dec-22 12:10 150 1 gusting 3 18.3
2014-Dec-22 12:00 150 3 gusting 4 18.3
2014-Dec-22 11:50 150 3 gusting 4 17.8
2014-Dec-22 11:40 150 1 gusting 3 17.8
2014-Dec-22 11:30 180 1 gusting 2 17.2
2014-Dec-22 11:20 195 1 gusting 3 16.7
2014-Dec-22 11:00 240 0 gusting 1 16.7
2014-Dec-22 10:50 195 0 gusting 1 16.1
2014-Dec-22 10:40 225 0 gusting 2 16.1
2014-Dec-22 10:30 195 0 gusting 1 15.6
2014-Dec-22 10:10 180 15.0
2014-Dec-22 10:00 195 1 gusting 2 14.4
2014-Dec-22 09:50 180 1 gusting 1 13.3
2014-Dec-22 09:40 165 12.8
2014-Dec-22 09:30 150 1 gusting 2 11.7
2014-Dec-22 09:20 150 0 gusting 1 11.1
2014-Dec-22 09:10 150 0 gusting 1 10.6
2014-Dec-22 08:50 135 0 gusting 1 8.9
2014-Dec-22 08:40 090 0 gusting 1 7.8
2014-Dec-22 08:30 075 0 gusting 1 7.8
2014-Dec-22 08:20 090 1 gusting 1 7.2
2014-Dec-22 08:00 090 1 gusting 1 6.1
2014-Dec-22 07:50 090 5.6
2014-Dec-22 07:40 090 5.6
2014-Dec-22 07:30 090 5.6
2014-Dec-22 07:00 075 5.6
2014-Dec-22 06:40 090 6.1
2014-Dec-22 06:30 075 5.6
2014-Dec-22 06:20 075 5.6
2014-Dec-22 06:10 105 5.6
2014-Dec-22 05:40 090 1 gusting 1 6.1
2014-Dec-22 05:30 105 5.6
2014-Dec-22 05:20 105 0 gusting 1 6.1
2014-Dec-22 05:10 090 0 gusting 1 6.1
2014-Dec-22 04:50 135 0 gusting 1 6.1
2014-Dec-22 04:40 075 6.1
2014-Dec-22 04:10 075 1 gusting 1 5.6
2014-Dec-22 03:50 135 5.0
2014-Dec-22 03:30 120 5.0
2014-Dec-22 03:10 120 0 gusting 1 5.6
2014-Dec-22 02:50 090 6.1
2014-Dec-22 02:30 090 6.1
2014-Dec-22 02:20 090 6.1
2014-Dec-22 02:00 075 6.1
2014-Dec-22 01:50 090 0 gusting 1 6.1
2014-Dec-22 01:40 090 6.7
2014-Dec-22 01:30 090 6.7
2014-Dec-22 01:20 090 6.7
2014-Dec-22 01:10 090 0 gusting 1 6.7
2014-Dec-22 01:00 090 0 gusting 1 6.7
2014-Dec-22 00:50 105 1 gusting 1 6.7
2014-Dec-22 00:40 135 0 gusting 1 6.7
2014-Dec-22 00:30 105 0 gusting 1 7.2
2014-Dec-22 00:10 090 1 gusting 1 7.2
2014-Dec-22 00:00 105 0 gusting 1 7.8
2014-Dec-21 23:50 090 0 gusting 1 7.8
2014-Dec-21 23:40 090 1 gusting 1 7.8
2014-Dec-21 23:20 090 0 gusting 1 7.8
2014-Dec-21 23:10 105 7.8
2014-Dec-21 22:30 105 0 gusting 1 7.8
2014-Dec-21 22:10 090 7.8
2014-Dec-21 21:40 120 7.8
2014-Dec-21 21:30 090 8.3
2014-Dec-21 20:30 090 7.8
2014-Dec-21 20:20 090 0 gusting 1 8.3
2014-Dec-21 20:10 120 0 gusting 1 8.3
2014-Dec-21 20:00 135 8.9
2014-Dec-21 19:40 090 8.9
2014-Dec-21 19:00 120 9.4
2014-Dec-21 18:50 135 10.0
2014-Dec-21 18:10 105 10.6
2014-Dec-21 18:00 135 11.1
2014-Dec-21 17:50 090 11.1
2014-Dec-21 17:30 11.7
2014-Dec-21 16:50 285 0 gusting 1 13.3
2014-Dec-21 16:40 240 13.3
2014-Dec-21 16:30 240 13.9
2014-Dec-21 16:20 210 0 gusting 1 14.4
2014-Dec-21 16:10 180 0 gusting 1 14.4
2014-Dec-21 16:00 165 1 gusting 3 15.0
2014-Dec-21 15:50 150 1 gusting 3 15.6
2014-Dec-21 15:40 150 1 gusting 3 15.6
2014-Dec-21 15:10 195 1 gusting 3 16.7
2014-Dec-21 15:00 165 1 gusting 3 16.7
2014-Dec-21 14:20 135 1 gusting 3 18.3
2014-Dec-21 14:00 135 1 gusting 3 19.4
2014-Dec-21 13:20 292 1 gusting 3 21.7
2014-Dec-21 13:00 120 0 gusting 1 21.7
2014-Dec-21 12:40 045 1 gusting 1 21.1
2014-Dec-21 12:30 135 0 gusting 1 20.6
2014-Dec-21 12:20 045 0 gusting 1 20.6
2014-Dec-21 12:00 045 0 gusting 2 20.0
2014-Dec-21 11:50 060 1 gusting 2 20.0
2014-Dec-21 11:40 075 1 gusting 1 19.4
2014-Dec-21 11:20 075 0 gusting 1 18.3
2014-Dec-21 11:10 060 0 gusting 1 17.8
2014-Dec-21 11:00 105 1 gusting 2 17.2
2014-Dec-21 10:50 015 17.2
2014-Dec-21 10:40 165 17.2
2014-Dec-21 10:30 165 16.7
2014-Dec-21 10:20 180 1 gusting 2 16.7
2014-Dec-21 10:00 165 1 gusting 1 15.6
2014-Dec-21 09:50 165 0 gusting 1 14.4
2014-Dec-21 09:40 165 13.3
2014-Dec-21 09:20 150 0 gusting 1 11.7
2014-Dec-21 09:10 180 0 gusting 1 10.6
2014-Dec-21 08:00 120 0 gusting 1 7.2
2014-Dec-21 07:50 090 0 gusting 1 6.7
2014-Dec-21 07:40 090 0 gusting 1 6.7
2014-Dec-21 07:20 105 1 gusting 1 6.7
2014-Dec-21 07:10 120 0 gusting 1 6.7
2014-Dec-21 06:50 150 6.7
2014-Dec-21 06:10 090 7.2
2014-Dec-21 06:00 090 0 gusting 1 7.2
2014-Dec-21 05:50 090 0 gusting 1 7.2
2014-Dec-21 05:10 045 7.8
2014-Dec-21 05:00 135 7.8
2014-Dec-21 04:40 165 7.8
2014-Dec-21 04:20 105 8.3
2014-Dec-21 04:10 135 8.3
2014-Dec-21 04:00 090 8.3
2014-Dec-21 03:30 105 7.8
2014-Dec-21 03:20 120 7.2
2014-Dec-21 03:00 105 8.3
2014-Dec-21 02:50 090 7.8
2014-Dec-21 02:40 090 7.8
2014-Dec-21 02:30 105 7.8
2014-Dec-21 02:20 090 7.8
2014-Dec-21 02:00 045 7.2